DW4127 Weather Reports


Display with metric or nautical units.
time (UTC)temp
F
wind
direction
speed
MPH
gust
MPH
rain 1hr
in
rain 24hr
in
rain mn
in
humidity
%
barometer
mb
20260904193037 97 113 5.0 13.0 0.00 0.00 0.00 48 1012.4
20260904192037 98 113 5.0 11.0 0.00 0.00 0.00 45 1012.6
20260904191037 98 135 4.0 9.0 0.00 0.00 0.00 47 1012.7
20260904190037 97 113 5.0 12.0 0.00 0.00 0.00 48 1012.7
20260904185037 97 113 5.0 11.0 0.00 0.00 0.00 49 1012.8
20260904184037 97 113 5.0 11.0 0.00 0.00 0.00 49 1013.0
20260904183037 96 135 4.0 13.0 0.00 0.00 0.00 48 1013.1
20260904182037 95 135 5.0 11.0 0.00 0.00 0.00 49 1013.3
20260904181037 96 113 5.0 10.0 0.00 0.00 0.00 49 1013.5
20260904180035 95 90 5.0 11.0 0.00 0.00 0.00 53 1013.6
20260904175057 94 113 4.0 8.0 0.00 0.00 0.00 55 1013.6
20260904174037 94 113 6.0 10.0 0.00 0.00 0.00 55 1013.8
20260904173037 94 113 4.0 10.0 0.00 0.00 0.00 55 1013.9
20260904172037 93 135 4.0 8.0 0.00 0.00 0.00 55 1014.0
20260904171037 93 135 6.0 13.0 0.00 0.00 0.00 57 1014.2
20260904170037 92 113 5.0 11.0 0.00 0.00 0.00 58 1014.1
20260904165057 91 158 3.0 9.0 0.00 0.00 0.00 59 1014.3
20260904164037 91 135 3.0 10.0 0.00 0.00 0.00 64 1014.3
20260904163037 90 135 4.0 10.0 0.00 0.00 0.00 65 1014.3
20260904162037 89 158 3.0 8.0 0.00 0.00 0.00 64 1014.3
20260904161037 89 135 3.0 8.0 0.00 0.00 0.00 65 1014.3
20260904160037 89 135 4.0 9.0 0.00 0.00 0.00 66 1014.3
20260904155037 88 113 4.0 10.0 0.00 0.00 0.00 68 1014.3
20260904154037 87 158 5.0 9.0 0.00 0.00 0.00 70 1014.3
20260904153037 87 90 5.0 10.0 0.00 0.00 0.00 69 1014.1
20260904152037 86 135 4.0 12.0 0.00 0.00 0.00 73 1014.1
20260904151037 86 135 5.0 9.0 0.00 0.00 0.00 74 1014.1
20260904150037 85 113 4.0 8.0 0.00 0.00 0.00 76 1014.1
20260904145037 84 203 4.0 8.0 0.00 0.00 0.00 77 1014.1
20260904144037 84 113 3.0 7.0 0.00 0.00 0.00 80 1014.1
20260904143037 83 113 4.0 10.0 0.00 0.00 0.00 82 1014.1
20260904142057 82 113 6.0 14.0 0.00 0.00 0.00 82 1014.2
20260904141057 82 113 4.0 9.0 0.00 0.00 0.00 83 1014.1
20260904140037 81 135 3.0 7.0 0.00 0.00 0.00 84 1014.0
20260904135037 81 135 5.0 11.0 0.00 0.00 0.00 86 1014.0
20260904134037 80 135 6.0 10.0 0.00 0.00 0.00 87 1013.8
20260904133037 79 135 5.0 8.0 0.00 0.00 0.00 87 1013.7
20260904132057 79 113 4.0 9.0 0.00 0.00 0.00 88 1013.6
20260904131037 78 135 4.0 8.0 0.00 0.00 0.00 88 1013.6
20260904130057 78 135 3.0 7.0 0.00 0.00 0.00 89 1013.5
20260904125037 77 135 3.0 7.0 0.00 0.00 0.00 89 1013.3
20260904124037 77 0 4.0 8.0 0.00 0.00 0.00 88 1013.2
20260904123037 77 0 4.0 10.0 0.00 0.00 0.00 88 1013.3
20260904122037 77 0 2.0 6.0 0.00 0.00 0.00 88 1013.3
20260904121037 77 0 2.0 4.0 0.00 0.00 0.00 88 1013.3
20260904120057 77 0 3.0 5.0 0.00 0.00 0.00 87 1013.2
20260904115036 77 0 3.0 6.0 0.00 0.00 0.00 87 1013.1
20260904114037 77 0 2.0 3.0 0.00 0.00 0.00 87 1013.0
20260904113036 76 0 2.0 4.0 0.00 0.00 0.00 87 1013.0
20260904112037 77 0 2.0 4.0 0.00 0.00 0.00 86 1012.9
20260904111037 77 0 2.0 4.0 0.00 0.00 0.00 86 1012.9
20260904110037 77 0 2.0 4.0 0.00 0.00 0.00 85 1012.9
20260904105036 77 0 4.0 6.0 0.00 0.00 0.00 85 1012.8
20260904104037 77 0.0 3.0 0.00 0.00 0.00 84 1012.8
20260904103037 77 0.0 3.0 0.00 0.00 0.00 84 1012.8
20260904102037 77 90 2.0 4.0 0.00 0.00 0.00 84 1012.6
20260904101036 77 90 2.0 5.0 0.00 0.00 0.00 83 1012.6
20260904100036 77 90 2.0 4.0 0.00 0.00 0.00 83 1012.6
20260904095037 78 90 2.0 6.0 0.00 0.00 0.00 83 1012.5
20260904094037 78 90 2.0 3.0 0.00 0.00 0.00 82 1012.5
20260904093036 78 90 1.0 3.0 0.00 0.00 0.00 82 1012.6
20260904092056 78 90 1.0 3.0 0.00 0.00 0.00 82 1012.6
20260904091057 78 113 2.0 6.0 0.00 0.00 0.00 81 1012.6
20260904090056 78 0 3.0 7.0 0.00 0.00 0.00 81 1012.6
20260904085056 78 90 3.0 7.0 0.00 0.00 0.00 81 1012.6
20260904084036 78 0 3.0 7.0 0.00 0.00 0.00 81 1012.5
20260904083036 79 90 2.0 6.0 0.00 0.00 0.00 80 1012.5
20260904082036 79 90 3.0 7.0 0.00 0.00 0.00 80 1012.5
20260904081037 79 90 2.0 4.0 0.00 0.00 0.00 80 1012.5
20260904080037 79 113 2.0 6.0 0.00 0.00 0.00 79 1012.5
20260904075036 79 90 2.0 5.0 0.00 0.00 0.00 79 1012.4
20260904074037 79 90 2.0 6.0 0.00 0.00 0.00 78 1012.4
20260904073036 79 90 3.0 6.0 0.00 0.00 0.00 78 1012.4
20260904072036 80 90 2.0 5.0 0.00 0.00 0.00 78 1012.5
20260904071036 80 90 2.0 7.0 0.00 0.00 0.00 77 1012.3
20260904070036 80 113 2.0 6.0 0.00 0.00 0.00 77 1012.4
20260904065037 80 113 2.0 6.0 0.00 0.00 0.00 77 1012.7
20260904064036 80 113 3.0 9.0 0.00 0.00 0.00 76 1012.7
20260904063036 80 113 2.0 4.0 0.00 0.00 0.00 76 1012.5
20260904062036 80 113 3.0 8.0 0.00 0.00 0.00 75 1012.6
20260904061036 81 113 3.0 8.0 0.00 0.00 0.00 75 1012.6
20260904060036 81 113 4.0 10.0 0.00 0.00 0.00 75 1012.6
20260904055036 81 113 4.0 10.0 0.00 0.00 0.00 75 1012.6
20260904054036 81 113 5.0 11.0 0.00 0.00 0.00 74 1012.6
20260904053037 81 113 3.0 10.0 0.00 0.00 0.00 74 1012.6
20260904052037 81 113 5.0 13.0 0.00 0.00 0.00 73 1012.5
20260904051036 81 113 4.0 7.0 0.00 0.00 0.00 72 1012.5
20260904050612 81 135 3.0 3.0 0.00 0.00 0.00 72 1012.5
20260904045535 81 113 5.0 10.0 0.00 0.00 0.00 72 1012.4
20260904044616 81 113 5.0 10.0 0.00 0.00 0.00 72 1012.4
20260904043535 82 113 5.0 12.0 0.00 0.00 0.00 71 1012.5
20260904042536 82 113 4.0 11.0 0.00 0.00 0.00 71 1012.6
20260904041535 82 113 3.0 8.0 0.00 0.00 0.00 70 1012.7
20260904040536 82 113 4.0 10.0 0.00 0.00 0.00 70 1012.6
20260904035536 82 113 5.0 8.0 0.00 0.00 0.00 69 1012.7
20260904034635 82 113 3.0 8.0 0.00 0.00 0.00 68 1012.6
20260904033535 82 90 3.0 10.0 0.00 0.00 0.00 68 1012.7
20260904032535 82 113 3.0 10.0 0.00 0.00 0.00 68 1012.7
20260904031556 83 113 4.0 10.0 0.00 0.00 0.00 68 1012.7
20260904030535 83 113 4.0 10.0 0.00 0.00 0.00 68 1012.6
20260904025535 83 90 4.0 8.0 0.00 0.00 0.00 68 1012.4
20260904024535 83 90 4.0 8.0 0.00 0.00 0.00 68 1012.3
20260904023536 83 113 4.0 11.0 0.00 0.00 0.00 69 1012.1
20260904022536 83 90 4.0 9.0 0.00 0.00 0.00 70 1011.8
20260904021535 84 90 5.0 11.0 0.00 0.00 0.00 70 1011.7
20260904020555 84 90 5.0 9.0 0.00 0.00 0.00 71 1011.6
20260904015535 84 90 5.0 10.0 0.00 0.00 0.00 70 1011.4
20260904014535 85 90 6.0 11.0 0.00 0.00 0.00 70 1011.2
20260904013535 85 90 6.0 12.0 0.00 0.00 0.00 69 1011.2
20260904012535 85 90 4.0 11.0 0.00 0.00 0.00 69 1011.1
20260904011536 85 90 5.0 10.0 0.00 0.00 0.00 68 1011.0
20260904010535 86 90 4.0 10.0 0.00 0.00 0.00 67 1010.9
20260904005535 86 90 4.0 11.0 0.00 0.00 0.00 66 1011.0
20260904004550 86 90 6.0 13.0 0.00 0.00 0.00 66 1011.0
20260904003535 87 90 7.0 13.0 0.00 0.00 0.00 65 1010.9
20260904002535 87 90 6.0 11.0 0.00 0.00 0.00 63 1010.8
20260904001535 87 90 7.0 12.0 0.00 0.00 0.00 63 1010.7
20260904000536 88 90 7.0 12.0 0.00 0.00 0.00 63 1010.7
20260903235535 88 135 6.0 16.0 0.00 0.00 0.00 63 1010.7
20260903234535 88 135 6.0 13.0 0.00 0.00 0.00 64 1010.7
20260903233535 89 158 8.0 15.0 0.00 0.00 0.00 64 1010.6
20260903232535 89 90 8.0 15.0 0.00 0.00 0.00 63 1010.4
20260903231535 90 113 6.0 13.0 0.00 0.00 0.00 62 1010.4
20260903230555 90 90 5.0 12.0 0.00 0.00 0.00 63 1010.4
20260903225535 91 113 7.0 12.0 0.00 0.00 0.00 59 1010.5
20260903224535 91 113 7.0 12.0 0.00 0.00 0.00 59 1010.5
20260903223535 92 90 7.0 14.0 0.00 0.00 0.00 58 1010.3
20260903222535 92 90 7.0 11.0 0.00 0.00 0.00 57 1010.2
20260903221555 92 113 7.0 15.0 0.00 0.00 0.00 58 1010.4
20260903220535 92 113 8.0 15.0 0.00 0.00 0.00 57 1010.4
20260903215535 93 113 5.0 11.0 0.00 0.00 0.00 58 1010.5
20260903214535 92 90 6.0 12.0 0.00 0.00 0.00 58 1010.7
20260903213535 92 113 8.0 13.0 0.00 0.00 0.00 59 1010.7
20260903212535 91 113 6.0 12.0 0.00 0.00 0.00 61 1010.8
20260903211535 92 113 6.0 12.0 0.00 0.00 0.00 60 1010.9
20260903210535 91 180 5.0 11.0 0.00 0.00 0.00 61 1010.9
20260903205555 91 113 7.0 15.0 0.00 0.00 0.00 61 1011.0
20260903204555 91 135 6.0 13.0 0.00 0.00 0.00 62 1011.2
20260903203555 91 158 5.0 14.0 0.00 0.00 0.00 62 1011.3
20260903202535 91 135 5.0 16.0 0.00 0.00 0.00 62 1011.5
20260903201535 91 0 5.0 11.0 0.00 0.00 0.00 64 1011.6
20260903200535 90 180 6.0 11.0 0.00 0.00 0.00 63 1011.6
20260903195615 90 135 7.0 14.0 0.00 0.00 0.00 65 1011.5
20260903194535 87 113 6.0 12.0 0.00 0.00 0.00 68 1011.6
20260903193535 86 113 7.0 13.0 0.00 0.00 0.00 68 1011.8